sat.trackr.live / text

‹ back to catalog

STARLINK-32297

NORAD 61521 · 2024-183N

PAYLOAD ACTIVE UNKNOWN

§ Identity

Operator
Country
US
Launch date
2024-10-15
Launch site
AFETR
Launch vehicle
Mass (kg)
RCS (m²)

Purposes: comms

External: N2YO · Heavens-Above · Gunter

§ Orbital elements

Epoch: 2026-05-25T03:50:05.272800Z

Period
94.11 min
Inclination
53.1586°
Eccentricity
0.0001121
Mean motion
15.30195187 rev/d
Perigee alt
474.5 km
Apogee alt
476.0 km
Semi-major
6,853.4 km
B*
2.3543e-5
RAAN
147.0081°
Arg perigee
85.4445°
Mean anomaly
274.6683°
Rev number
9,136

§ Raw data

STARLINK-322971 61521U 24183N   26145.15978325  .00000338  00000+0  23543-4 0  99952 61521  53.1586 147.0081 0001121  85.4445 274.6683 15.30195187 91366

JSON: /api/v1/satellites/61521 · /tle

For live sub-satellite position, see the globe view (requires WebGL).

§ Visibility from observer

Set your observer location to see the next 7 days of passes ≥ 10°. The values pass through the URL so the page stays shareable.

No JS? Fill the form by hand. The geolocation button needs JavaScript.